IZ4UFQ-10 Weather Reports


Display with metric or nautical units.
time (UTC)temp
F
wind
direction
speed
MPH
gust
MPH
rain 1hr
in
rain 24hr
in
rain mn
in
humidity
%
barometer
mb
20260506015712 59 54 0.0 0.0 0.24 0.77 0.38 94 1010.8
20260506015211 59 52 0.0 0.0 0.25 0.76 0.37 94 1010.8
20260506014711 59 44 0.0 0.0 0.27 0.75 0.36 94 1010.6
20260506014211 59 47 0.0 0.0 0.27 0.73 0.34 94 1011.0
20260506013711 59 47 0.0 0.0 0.27 0.71 0.32 94 1011.3
20260506013210 59 45 0.0 0.0 0.27 0.69 0.30 94 1011.5
20260506012710 59 45 0.0 0.0 0.26 0.67 0.28 94 1011.3
20260506012210 59 45 0.0 0.0 0.25 0.65 0.26 94 1011.3
20260506011710 59 47 0.0 0.0 0.22 0.62 0.23 94 1011.4
20260506011209 59 45 0.0 0.0 0.21 0.61 0.22 93 1011.6
20260506010709 59 47 0.0 0.0 0.19 0.59 0.20 93 1011.6
20260506010209 59 44 0.0 0.0 0.16 0.56 0.17 93 1011.7
20260506005708 59 45 0.0 0.0 0.13 0.53 0.14 93 1011.6
20260506005208 59 45 0.0 0.0 0.11 0.51 0.12 93 1011.6
20260506004708 59 45 0.0 0.0 0.08 0.48 0.09 93 1011.5
20260506004207 59 44 0.0 0.0 0.06 0.46 0.07 93 1011.3
20260506003707 59 45 0.0 0.0 0.04 0.44 0.05 93 1011.2
20260506003207 59 45 0.0 0.0 0.02 0.42 0.03 93 1011.2
20260506002707 59 45 0.0 0.0 0.01 0.41 0.02 93 1011.0
20260506002206 59 45 0.0 0.0 0.01 0.40 0.01 93 1011.0
20260506001706 59 45 0.0 0.0 0.01 0.40 0.01 93 1011.0
20260506001206 59 45 0.0 0.0 0.01 0.40 0.01 93 1011.0
20260506000705 59 45 0.0 0.0 0.01 0.40 0.01 93 1011.1
20260506000205 59 45 0.0 0.0 0.01 0.40 0.01 92 1011.3
20260505235705 59 45 0.0 0.0 0.01 0.40 0.01 92 1011.5
20260505235205 59 45 0.0 0.0 0.01 0.40 0.01 92 1011.6
20260505234704 59 45 0.0 0.0 0.01 0.40 0.01 92 1011.7
20260505234204 59 45 0.0 0.0 0.01 0.40 0.01 92 1011.7
20260505233704 59 41 0.0 0.0 0.01 0.40 0.01 92 1011.8
20260505233203 59 40 0.0 0.0 0.01 0.40 0.01 92 1011.7
20260505232703 59 40 0.0 0.0 0.01 0.40 0.01 92 1011.7
20260505232203 59 39 0.0 0.0 0.00 0.39 0.00 92 1011.7
20260505231703 59 39 0.0 0.0 0.00 0.39 0.00 92 1011.7
20260505231202 59 39 0.0 0.0 0.00 0.39 0.00 92 1011.7
20260505230702 59 40 0.0 0.0 0.00 0.39 0.00 91 1011.7
20260505230202 59 40 0.0 0.0 0.00 0.39 0.00 91 1011.6
20260505225701 59 39 0.0 0.0 0.00 0.39 0.00 91 1011.7
20260505225201 59 39 0.0 0.0 0.00 0.39 0.00 91 1011.8
20260505224701 59 39 0.0 0.0 0.00 0.39 0.00 91 1011.8
20260505224201 59 39 0.0 0.0 0.00 0.39 0.00 91 1011.9
20260505223700 59 39 0.0 0.0 0.00 0.39 0.00 91 1011.8
20260505223200 60 39 0.0 0.0 0.00 0.39 0.00 91 1011.9
20260505222700 60 40 0.0 0.0 0.00 0.39 0.00 91 1011.9
20260505222159 60 39 0.0 0.0 0.00 0.39 0.00 91 1012.1
20260505221659 60 39 0.0 0.0 0.00 0.39 0.00 90 1012.1
20260505221159 60 39 0.0 0.0 0.00 0.39 0.00 90 1012.2
20260505220659 60 39 0.0 0.0 0.00 0.39 0.00 90 1012.2
20260505220158 60 39 0.0 0.0 0.00 0.39 0.00 90 1012.2
20260505215658 60 39 0.0 0.0 0.00 0.39 0.00 90 1012.2
20260505215158 60 39 0.0 0.0 0.00 0.39 0.39 90 1012.2
20260505214657 60 40 0.0 0.0 0.00 0.39 0.39 90 1012.4
20260505214157 60 40 0.0 0.0 0.00 0.39 0.39 89 1012.4
20260505213657 60 40 0.0 0.0 0.00 0.39 0.39 89 1012.5
20260505213157 60 39 0.0 0.0 0.00 0.39 0.39 89 1012.5
20260505212656 60 40 0.0 0.0 0.00 0.39 0.39 89 1012.6
20260505212156 61 40 0.0 0.0 0.00 0.39 0.39 88 1012.5
20260505211656 61 40 0.0 0.0 0.00 0.39 0.39 88 1012.5
20260505211155 61 39 0.0 0.0 0.00 0.39 0.39 88 1012.5
20260505210655 61 40 0.0 0.0 0.00 0.39 0.39 88 1012.5
20260505210155 61 39 0.0 0.0 0.00 0.39 0.39 87 1012.4
20260505205655 61 40 0.0 0.0 0.00 0.39 0.39 87 1012.4
20260505205154 62 40 0.0 0.0 0.00 0.39 0.39 87 1012.5
20260505204654 62 40 0.0 0.0 0.00 0.39 0.39 87 1012.4
20260505204154 62 40 0.0 0.0 0.00 0.39 0.39 87 1012.5
20260505203653 62 39 0.0 0.0 0.00 0.39 0.39 87 1012.3
20260505203153 62 39 0.0 0.0 0.00 0.39 0.39 87 1012.3
20260505202653 62 39 0.0 0.0 0.00 0.39 0.39 87 1012.4
20260505202153 62 39 0.0 0.0 0.00 0.39 0.39 86 1012.4
20260505201652 62 39 0.0 0.0 0.00 0.39 0.39 86 1012.4
20260505201152 62 40 0.0 0.0 0.00 0.39 0.39 86 1012.3
20260505200652 62 39 0.0 0.0 0.00 0.39 0.39 86 1012.3
20260505200151 62 43 0.0 0.0 0.00 0.39 0.39 85 1012.4
20260505195651 63 45 0.0 0.0 0.00 0.39 0.39 85 1012.3
20260505195151 63 45 0.0 0.0 0.00 0.39 0.39 85 1012.3
20260505194650 63 47 0.0 0.0 0.00 0.39 0.39 85 1012.2
20260505194150 63 47 0.0 0.0 0.00 0.39 0.39 85 1012.1
20260505193650 63 48 0.0 0.0 0.00 0.39 0.39 84 1012.0
20260505193150 64 38 0.0 0.0 0.00 0.39 0.39 84 1012.0
20260505192649 64 19 0.0 0.0 0.00 0.39 0.39 84 1011.9
20260505192149 64 22 0.0 0.0 0.00 0.39 0.39 84 1011.8
20260505191649 64 22 0.0 0.0 0.00 0.39 0.39 83 1011.8
20260505191148 64 21 0.0 0.0 0.00 0.39 0.39 82 1011.8
20260505190648 64 29 0.0 0.0 0.00 0.39 0.39 82 1011.7
20260505190148 65 330 0.0 0.0 0.00 0.39 0.39 81 1011.7
20260505185648 65 329 0.0 0.0 0.00 0.39 0.39 81 1011.6
20260505185147 65 329 0.0 0.0 0.00 0.39 0.39 81 1011.6
20260505184647 65 329 0.0 0.0 0.00 0.39 0.39 81 1011.6
20260505184147 65 327 0.0 0.0 0.00 0.39 0.39 81 1011.5
20260505183647 65 323 0.0 0.0 0.00 0.39 0.39 81 1011.5
20260505183146 65 312 0.0 0.0 0.00 0.39 0.39 81 1011.5
20260505182646 65 316 0.0 0.0 0.00 0.39 0.39 81 1011.5
20260505182146 65 315 0.0 0.0 0.00 0.39 0.39 81 1011.5
20260505181645 65 347 0.0 0.0 0.00 0.39 0.39 81 1011.5
20260505181145 65 347 0.0 0.0 0.00 0.39 0.39 81 1011.5
20260505180645 66 348 0.0 0.0 0.00 0.39 0.39 81 1011.5
20260505180144 66 343 0.0 0.0 0.00 0.39 0.39 81 1011.4
20260505175644 66 335 0.0 0.0 0.00 0.39 0.39 81 1011.4
20260505175144 66 316 0.0 0.0 0.00 0.39 0.39 81 1011.3
20260505174644 66 323 0.0 0.0 0.00 0.39 0.39 80 1011.3
20260505174143 66 327 0.0 0.0 0.00 0.39 0.39 80 1011.2
20260505173643 66 326 0.0 0.0 0.00 0.39 0.39 80 1011.2
20260505173143 67 324 0.0 0.0 0.00 0.39 0.39 80 1011.2
20260505172642 67 322 0.0 0.0 0.00 0.39 0.39 79 1011.2
20260505172142 67 300 0.0 0.0 0.00 0.39 0.39 80 1011.2
20260505171642 67 290 0.0 0.0 0.00 0.39 0.39 80 1011.2
20260505171142 67 288 0.0 0.0 0.00 0.39 0.39 80 1011.1
20260505170641 67 300 0.0 0.0 0.00 0.39 0.39 80 1011.2
20260505170141 67 293 0.0 0.0 0.00 0.39 0.39 80 1011.1
20260505165641 66 292 0.0 0.0 0.00 0.39 0.39 80 1011.2
20260505165140 66 287 0.0 0.0 0.00 0.39 0.39 80 1011.2
20260505164640 67 272 0.0 0.0 0.00 0.39 0.39 80 1011.2
20260505164140 67 341 0.0 0.0 0.00 0.39 0.39 80 1011.2
20260505163640 67 345 0.0 0.0 0.00 0.39 0.39 80 1011.1
20260505163139 67 316 0.0 0.0 0.00 0.39 0.39 80 1011.1
20260505162639 67 324 0.0 0.0 0.00 0.39 0.39 80 1011.1
20260505162139 67 320 0.0 0.0 0.00 0.39 0.39 80 1011.2
20260505161638 67 280 0.0 0.0 0.00 0.39 0.39 79 1011.1
20260505161138 67 339 0.0 0.0 0.00 0.39 0.39 80 1011.1
20260505160638 67 12 0.0 0.0 0.00 0.39 0.39 80 1011.1
20260505160138 67 354 0.0 0.0 0.00 0.39 0.39 80 1011.2
20260505153136 68 354 0.0 0.0 0.00 0.39 0.39 78 1011.1
20260505152636 68 14 0.0 0.0 0.00 0.39 0.39 78 1011.1
20260505152135 68 348 0.0 0.0 0.00 0.39 0.39 77 1011.1
20260505151635 68 354 0.0 0.0 0.00 0.39 0.39 78 1011.1
20260505151135 68 326 0.0 0.0 0.00 0.39 0.39 78 1011.0
20260505150634 67 342 0.0 0.0 0.00 0.39 0.39 79 1011.1
20260505150134 67 4 0.0 0.0 0.00 0.39 0.39 79 1011.2
20260505140631 68 11 0.0 0.0 0.00 0.39 0.39 76 1011.1
20260505140131 69 354 0.0 0.0 0.00 0.39 0.39 75 1011.1
20260505130127 67 99 0.0 0.0 0.01 0.39 0.39 80 1011.5
20260505124626 67 350 0.0 0.0 0.01 0.39 0.39 85 1011.8
20260505124126 66 73 0.0 0.0 0.01 0.39 0.39 85 1011.7
20260505123626 65 69 0.0 0.0 0.00 0.38 0.38 87 1011.8
20260505123125 65 60 0.0 0.0 0.00 0.38 0.38 88 1011.8
20260505122625 65 67 0.0 0.0 0.00 0.38 0.38 88 1012.0
20260505122125 64 48 0.0 0.0 0.00 0.38 0.38 89 1012.1
20260505121625 64 27 0.0 0.0 0.00 0.38 0.38 90 1012.1
20260505121124 63 24 0.0 0.0 0.00 0.38 0.38 90 1012.2
20260505120624 63 23 0.0 0.0 0.00 0.38 0.38 91 1012.4
20260505120124 63 27 0.0 0.0 0.00 0.38 0.38 90 1012.3
20260505115623 63 28 0.0 0.0 0.00 0.38 0.38 91 1012.3
20260505115123 62 60 0.0 0.0 0.00 0.38 0.38 92 1012.3
20260505114623 62 79 0.0 0.0 0.00 0.38 0.38 92 1012.4
20260505114123 62 77 0.0 0.0 0.00 0.38 0.38 92 1012.4
20260505113622 62 98 0.0 0.0 0.00 0.38 0.38 93 1012.4
20260505113122 62 86 0.0 0.0 0.00 0.38 0.38 93 1012.4
20260505112622 62 122 0.0 0.0 0.00 0.38 0.38 93 1012.3
20260505112121 61 89 0.0 0.0 0.00 0.38 0.38 93 1012.2
20260505111621 61 90 0.0 0.0 0.00 0.38 0.38 93 1012.4
20260505111121 61 78 0.0 0.0 0.00 0.38 0.38 93 1012.4
20260505110621 61 84 0.0 0.0 0.00 0.38 0.38 93 1012.5
20260505110120 61 63 0.0 0.0 0.02 0.38 0.38 93 1012.6
20260505102118 60 54 0.0 0.0 0.09 0.38 0.38 92 1012.6
20260505101618 60 58 0.0 0.0 0.10 0.38 0.38 92 1012.7
20260505101117 60 112 0.0 0.0 0.10 0.38 0.38 92 1012.7
20260505100617 60 359 0.0 0.0 0.10 0.38 0.38 92 1012.6
20260505100117 60 68 0.0 0.0 0.08 0.36 0.36 91 1012.6
20260505095617 60 74 0.0 0.0 0.07 0.35 0.35 91 1012.8
20260505095116 60 120 0.0 0.0 0.04 0.32 0.32 91 1012.9
20260505094616 60 111 0.0 0.0 0.02 0.30 0.30 91 1012.9
20260505094116 60 80 0.0 0.0 0.01 0.29 0.29 91 1012.7
20260505093615 60 135 0.0 0.0 0.01 0.29 0.29 90 1012.7
20260505093115 60 81 0.0 0.0 0.01 0.29 0.29 90 1012.7
20260505092615 60 93 0.0 0.0 0.01 0.29 0.29 91 1012.6
20260505092115 60 85 0.0 0.0 0.01 0.29 0.29 90 1012.5
20260505091614 60 68 0.0 0.0 0.00 0.28 0.28 91 1012.5
20260505091114 60 343 0.0 0.0 0.00 0.28 0.28 91 1012.7
20260505090614 60 359 0.0 0.0 0.00 0.28 0.28 91 1012.9
20260505090113 59 276 0.0 0.0 0.00 0.28 0.28 91 1013.1
20260505085613 59 277 0.0 0.0 0.00 0.28 0.28 91 1012.9
20260505085113 59 359 0.0 0.0 0.00 0.28 0.28 91 1013.2
20260505084613 59 275 0.0 0.0 0.00 0.28 0.28 91 1013.3
20260505084112 59 148 0.0 0.0 0.00 0.28 0.28 91 1013.2
20260505083612 59 359 0.0 0.0 0.00 0.28 0.28 91 1013.1
20260505083112 59 143 0.0 0.0 0.00 0.28 0.28 91 1013.0
20260505082611 59 145 0.0 0.0 0.00 0.28 0.28 91 1012.9
20260505082111 59 145 0.0 0.0 0.00 0.28 0.28 92 1012.8
20260505081611 59 148 0.0 0.0 0.00 0.28 0.28 92 1012.7
20260505081110 59 142 0.0 0.0 0.00 0.28 0.28 91 1012.7
20260505080610 59 146 0.0 0.0 0.00 0.28 0.28 92 1012.5
20260505080110 58 144 0.0 0.0 0.00 0.28 0.28 92 1012.6
20260505075610 58 359 0.0 0.0 0.00 0.28 0.28 91 1012.7
20260505075109 58 154 0.0 0.0 0.01 0.28 0.28 91 1012.7
20260505074609 58 359 0.0 0.0 0.02 0.28 0.28 91 1012.7
20260505074109 57 154 0.0 0.0 0.03 0.28 0.28 91 1012.7
20260505073609 57 359 0.0 0.0 0.05 0.28 0.28 90 1012.8
20260505073108 57 154 0.0 0.0 0.07 0.28 0.28 90 1012.8
20260505072608 57 359 0.0 0.0 0.10 0.28 0.28 90 1012.9
20260505072108 57 155 0.0 0.0 0.12 0.28 0.28 90 1012.9
20260505071607 57 359 0.0 0.0 0.16 0.28 0.28 90 1012.9
20260505071107 57 152 0.0 0.0 0.19 0.28 0.28 90 1012.9
20260505070607 57 152 0.0 0.0 0.22 0.28 0.28 89 1013.0
20260505070106 57 151 0.0 0.0 0.24 0.28 0.28 89 1013.0
20260505065606 57 359 0.0 0.0 0.26 0.28 0.28 89 1012.9
20260505065106 57 155 0.0 0.0 0.26 0.27 0.27 89 1012.9
20260505064606 57 157 0.0 0.0 0.26 0.26 0.26 88 1013.2
20260505064106 57 152 0.0 0.0 0.25 0.25 0.25 88 1013.1
20260505063605 57 359 0.0 0.0 0.23 0.23 0.23 87 1013.0
20260505063105 58 157 0.0 0.0 0.21 0.21 0.21 86 1013.1
20260505062604 58 154 0.0 0.0 0.18 0.18 0.18 85 1013.2
20260505062104 58 159 0.0 0.0 0.16 0.16 0.16 85 1013.3
20260505061604 58 158 0.0 0.0 0.12 0.12 0.12 83 1013.3
20260505061104 59 157 0.0 0.0 0.09 0.09 0.09 83 1013.4
20260505060603 59 157 0.0 0.0 0.06 0.06 0.06 82 1013.3
20260505060103 59 199 0.0 0.0 0.04 0.04 0.04 81 1013.3
20260505055603 59 210 0.0 0.0 0.02 0.02 0.02 80 1013.2
20260505055102 59 210 0.0 0.0 0.01 0.01 0.01 78 1013.0
20260505054602 60 256 0.0 0.0 0.00 0.00 0.00 77 1012.8
20260505054102 60 198 0.0 0.0 0.00 0.00 0.00 76 1012.8
20260505053602 60 212 0.0 0.0 0.00 0.00 0.00 76 1012.7
20260505053101 60 233 0.0 0.0 0.00 0.00 0.00 75 1012.6
20260505052601 60 235 0.0 0.0 0.00 0.00 0.00 75 1012.6
20260505052101 60 213 0.0 0.0 0.00 0.00 0.00 75 1012.6
20260505051600 60 212 0.0 0.0 0.00 0.00 0.00 75 1012.7
20260505051100 60 210 0.0 0.0 0.00 0.00 0.00 75 1012.6
20260505050600 60 223 0.0 0.0 0.00 0.00 0.00 75 1012.6
20260505041557 62 162 0.0 0.0 0.00 0.00 0.00 68 1012.5
20260505041057 62 232 0.0 0.0 0.00 0.00 0.00 67 1012.5
20260505040556 62 203 0.0 0.0 0.00 0.00 0.00 66 1012.4
20260505040056 62 204 0.0 0.0 0.00 0.00 0.00 65 1012.4
20260505035556 62 154 0.0 0.0 0.00 0.00 0.00 64 1012.5
20260505035056 62 170 0.0 0.0 0.00 0.00 0.00 64 1012.5
20260505034555 62 233 0.0 0.0 0.00 0.00 0.00 63 1012.5
20260505034055 63 251 0.0 0.0 0.00 0.00 0.00 63 1012.6
20260505033555 63 209 0.0 0.0 0.00 0.00 0.00 62 1012.6
20260505033054 63 211 0.0 0.0 0.00 0.00 0.00 61 1012.6
20260505032554 63 236 0.0 0.0 0.00 0.00 0.00 61 1012.7
20260505032054 63 218 0.0 0.0 0.00 0.00 0.00 61 1012.8
20260505031554 63 213 0.0 0.0 0.00 0.00 0.00 60 1012.8
20260505031053 63 224 0.0 0.0 0.00 0.00 0.00 60 1012.9
20260505030553 63 228 0.0 0.0 0.00 0.00 0.00 60 1012.8
20260505030053 63 212 0.0 0.0 0.00 0.00 0.00 59 1012.9
20260505025552 63 195 0.0 0.0 0.00 0.00 0.00 59 1012.9
20260505025052 63 203 0.0 0.0 0.00 0.00 0.00 59 1013.0
20260505024552 63 209 0.0 0.0 0.00 0.00 0.00 59 1013.1
20260505024051 63 176 0.0 0.0 0.00 0.00 0.00 59 1013.1
20260505023551 63 198 0.0 0.0 0.00 0.00 0.00 59 1013.1
20260505023051 63 230 0.0 0.0 0.00 0.00 0.00 59 1013.3
20260505022551 63 184 0.0 0.0 0.00 0.00 0.00 59 1013.3
20260505022050 63 195 0.0 0.0 0.00 0.00 0.00 59 1013.3
20260505021550 63 211 0.0 0.0 0.00 0.00 0.00 59 1013.3
20260505021050 63 173 0.0 0.0 0.00 0.00 0.00 59 1013.4
20260505020550 63 190 0.0 0.0 0.00 0.00 0.00 59 1013.4
20260505020049 63 220 0.0 0.0 0.00 0.00 0.00 59 1013.4